Back to Previous

Regional Weather Roundup

513 
ASUS44 KLZK 300405
RWRLZK

WEATHER ROUNDUP FOR ARKANSAS
NATIONAL WEATHER SERVICE LITTLE ROCK AR
1100 PM CDT SUN MAR 29 2015

NOTE: "FAIR" INDICATES FEW OR NO CLOUDS BELOW 12,000 FEET WITH NO
SIGNIFICANT WEATHER AND/OR OBSTRUCTIONS TO VISIBILITY.

ARZ001-003-010-029-300500-
NORTHWEST ARKANSAS
  
CITY           SKY/WX    TMP DP  RH WIND       PRES   REMARKS
FAYETTEVILLE   CLEAR     44  43  96 CALM      30.16R                  
FORT SMITH     CLEAR     57  45  64 CALM      30.14R                  
HARRISON       CLEAR     53  43  68 NW7       30.14R                  
BENTONVILLE    CLEAR     48  43  81 CALM      30.16R                  
ROGERS         CLEAR     50  43  77 CALM      30.16R                  
SILOAM SPGS    CLEAR     46  39  76 N3        30.17R                  
HIGHFILL       CLEAR     46  41  82 CALM      30.15R                  
$$

ARZ004-005-016-300500-
NORTH CENTRAL ARKANSAS
  
CITY           SKY/WX    TMP DP  RH WIND       PRES   REMARKS
BATESVILLE     CLOUDY    59  50  72 CALM      30.09R                  
FLIPPIN        CLEAR     55  43  62 NW3       30.12R                  
MTN HOME       CLEAR     53  44  71 NW3       30.11R                  
$$

ARZ040-041-300500-
WEST CENTRAL ARKANSAS
  
CITY           SKY/WX    TMP DP  RH WIND       PRES   REMARKS
MENA           MOCLDY    64  50  59 N3        30.12R                  
MOUNT IDA      PTCLDY    61  50  67 CALM      30.07S                  
$$

ARZ009-017-025-026-028-300500-
NORTHEAST ARKANSAS
  
CITY           SKY/WX    TMP DP  RH WIND       PRES   REMARKS
CORNING          N/A     54  50  87 N3        30.11R                  
JONESBORO      CLOUDY    55  53  93 E5        30.05F                  
NEWPORT        CLOUDY    57  54  90 NW7       30.09S                  
BLYTHEVILLE    CLOUDY    53  52  96 N7        30.09R                  
$$

ARZ022-023-033-042-044-300500-
CENTRAL ARKANSAS
  
CITY           SKY/WX    TMP DP  RH WIND       PRES   REMARKS
LITTLE ROCK    CLOUDY    64  48  56 CALM      30.07F                  
N LITTLE ROCK  MOCLDY    64  52  64 N5        30.07F                  
JACKSONVILLE   CLOUDY    61  55  79 CALM      30.05F                  
SEARCY         LGT RAIN  58  54  86 S3        30.07F                  
HOT SPRINGS    PTCLDY    66  49  54 CALM      30.08R                  
RUSSELLVILLE   CLOUDY    62  51  67 MISG      30.09R                  
CLINTON        FAIR      59  50  72 CALM      30.12R                  
$$

ARZ036-300500-
EAST ARKANSAS
  
CITY           SKY/WX    TMP DP  RH WIND       PRES   REMARKS
WEST MEMPHIS   CLOUDY    61  54  77 CALM      30.04F THUNDER          
$$

ARZ050-053-066-070-073-300500-
SOUTHWEST ARKANSAS
  
CITY           SKY/WX    TMP DP  RH WIND       PRES   REMARKS
ARKADELPHIA    MOCLDY    67  59  75 SE3       30.06R                  
CAMDEN         PTCLDY    72  54  53 MISG      30.06S                  
TEXARKANA      CLEAR     70  55  59 SW7       30.07R                  
EL DORADO      PTCLDY    69  57  65 S8        30.09R                  
DE QUEEN       PTCLDY    67  53  61 NE5       30.06R                  
$$

ARZ056-057-069-300500-
SOUTHEAST ARKANSAS
  
CITY           SKY/WX    TMP DP  RH WIND       PRES   REMARKS
PINE BLUFF     CLOUDY    68  57  68 NW8       30.05R                  
STUTTGART      CLOUDY    61  54  77 N6        30.05F                  
MONTICELLO     PTCLDY    71  56  58 SW10      30.07R                  

$$




USA.gov is the U.S. government's official web portal to all federal, state and local government web resources and services.